Regional Weather Roundup
Issued by NWS

Home | Current Version | Previous Version | Text Only | Print | Product List | Glossary Off
Versions: 1 2 3 4 5 6 7 8 9 10 11 12 13 14 15 16 17 18 19 20 21 22 23 24 25 26 27 28 29 30 31 32 33 34 35 36 37 38 39 40 41 42 43 44 45 46 47 48 49 50

000
ASUS43 KLMK 230310
RWRKY
KENTUCKY REGIONAL WEATHER ROUNDUP
NATIONAL WEATHER SERVICE LOUISVILLE KY
1100 PM EDT TUE MAY 22 2018

NOTE "FAIR" INDICATES FEW OR NO CLOUDS BELOW 12,000 FEET
WITH NO SIGNIFICANT WEATHER AND/OR OBSTRUCTIONS TO VISIBILITY.

KYZ001>023-026-027-061>063-070>075-230400-
WESTERN AND SOUTH CENTRAL KENTUCKY

CITY           SKY/WX    TMP DP  RH WIND       PRES   REMARKS
PADUCAH        FAIR      76  68  76 SW6       30.01R
HENDERSON      NOT AVBL
OWENSBORO      FAIR      76  72  87 S3        30.01R
HOPKINSVILLE   FAIR      73  69  88 S6        30.03R
BOWLING GREEN  FAIR      70  68  93 CALM      30.04R
GLASGOW        FAIR      67  65  94 CALM      30.04R FOG
$$

KYZ024-025-028>034-038-045-046-053-230400-
NORTH CENTRAL KENTUCKY

CITY           SKY/WX    TMP DP  RH WIND       PRES   REMARKS
LOUISVILLE/SDF FAIR      77  70  79 W7        30.00R
LOUISVILLE/LOU MOCLDY    77  71  82 SW7       30.01R
FORT KNOX      FAIR      72  72 100 S6        30.03R
$$

KYZ035>037-039>044-047>052-055>060-089>105-230400-
NORTHEAST KENTUCKY

CITY           SKY/WX    TMP DP  RH WIND       PRES   REMARKS
LEXINGTON      FAIR      71  67  87 W7        30.03S
COVINGTON      MOCLDY    70  66  87 S3        30.02R
FRANKFORT      FAIR      73  64  73 VRB3      30.03R THUNDER
$$

KYZ054-064>069-076>088-106>120-230400-
SOUTHEAST KENTUCKY

CITY           SKY/WX    TMP DP  RH WIND       PRES   REMARKS
JACKSON        FAIR      69  66  90 VRB3      30.05S
LONDON         FOG       65  65 100 CALM      30.07S VSB 3/4
SOMERSET       FOG       64  64 100 MISG      30.07S VSB 1/2
MIDDLESBORO    FAIR      67  67 100 CALM      30.09R
MONTICELLO     FAIR      66  66 100 N9        30.08S FOG
$$





USA.gov is the U.S. government's official web portal to all federal, state and local government web resources and services.